This is the latest recevied weather packets stored in our database for station/object VR2HK-13. If no packets are shown the sender has not sent any weather packets the latest 1 day(s).
| Time | Temp. | Humidity | Pressure | Rain* | Wind** | Luminosity | Snow |
|---|---|---|---|---|---|---|---|
| 1778049148 | 23.89° C | 81% | 1012.4 hPa | 0.76 mm | 0.89 m/s, 353° | - | - |
| 1778049006 | 23.89° C | 80% | 1012.5 hPa | 0.76 mm | 0.89 m/s, 261° | - | - |
| 1778048837 | 23.89° C | 81% | 1012.5 hPa | 0.76 mm | 1.34 m/s, 358° | - | - |
| 1778048706 | 23.89° C | 81% | 1012.6 hPa | 0.76 mm | 1.34 m/s, 312° | - | - |
| 1778048528 | 23.89° C | 81% | 1012.6 hPa | 0.76 mm | 0.89 m/s, 292° | - | - |
| 1778048407 | 23.89° C | 81% | 1012.6 hPa | 0.76 mm | 1.34 m/s, 255° | - | - |
| 1778048217 | 23.89° C | 80% | 1012.7 hPa | 1.02 mm | 1.79 m/s, 57° | - | - |
| 1778048106 | 23.89° C | 80% | 1012.7 hPa | 1.02 mm | 3.58 m/s, 27° | - | - |
| 1778047908 | 23.89° C | 80% | 1012.8 hPa | 1.02 mm | 3.13 m/s, 38° | - | - |
| 1778047806 | 23.89° C | 79% | 1012.7 hPa | 1.02 mm | 4.92 m/s, 61° | - | - |
| 1778047597 | 24.44° C | 80% | 1012.8 hPa | 1.02 mm | 1.34 m/s, 19° | - | - |
| 1778047506 | 24.44° C | 80% | 1012.8 hPa | 1.02 mm | 0.45 m/s, 288° | - | - |
| 1778047287 | 24.44° C | 79% | 1012.9 hPa | 1.02 mm | 1.34 m/s, 67° | - | - |
| 1778047206 | 24.44° C | 79% | 1012.8 hPa | 1.02 mm | 0.45 m/s, 360° | - | - |
| 1778046977 | 24.44° C | 78% | 1012.9 hPa | 1.02 mm | 0.89 m/s, 262° | - | - |
| 1778046906 | 24.44° C | 78% | 1012.9 hPa | 1.02 mm | 2.24 m/s, 252° | - | - |
| 1778046667 | 25° C | 79% | 1012.9 hPa | 1.02 mm | 2.24 m/s, 245° | - | - |
| 1778046606 | 25° C | 78% | 1012.9 hPa | 1.02 mm | 1.79 m/s, 266° | - | - |
| 1778046357 | 24.44° C | 79% | 1012.9 hPa | 1.27 mm | 0.89 m/s, 317° | - | - |
| 1778046306 | 24.44° C | 79% | 1012.9 hPa | 1.27 mm | 1.34 m/s, 348° | - | - |
| 1778046047 | 24.44° C | 79% | 1013 hPa | 1.02 mm | 1.34 m/s, 318° | - | - |
| 1778046006 | 24.44° C | 79% | 1013 hPa | 1.02 mm | 0.89 m/s, 221° | - | - |
| 1778045737 | 24.44° C | 79% | 1013 hPa | 0.76 mm | 2.68 m/s, 220° | - | - |
| 1778045706 | 24.44° C | 79% | 1013 hPa | 0.76 mm | 2.24 m/s, 252° | - | - |
| 1778045427 | 24.44° C | 78% | 1013.1 hPa | 1.02 mm | 4.02 m/s, 251° | - | - |
* Rain latest hour (hover to see other rain measurements)
** Current wind speed in m/s (hover to see current wind gust speed)